Hourly Data Report for October 03, 2017

All times are specified in Local Standard Time (LST). Add 1 hour to adjust for Daylight Saving Time where and when it is observed.

CORAL HARBOUR A
NUNAVUT

64°11'36.000" N
83°21'34.000" W
62.20 m
2301002
71915
YZS

Download Data

Hourly Data (October 2017)
Hourly Data Report for October 3, 2017
Temp Definition
°C
Dew Point Temp Definition
°C
Rel Hum Definition
%
Wind Dir Definition
10's deg

Wind Spd Definition
km/h
Visibility Definition
km
Stn Press Definition
kPa
Hmdx Definition


Wind Chill Definition


Weather Definition


TIME
00:00 Legend Double Dagger -2.4 -4.5 85 34 30 19.3 99.04   -10 LegendNANA
01:00 Legend Double Dagger -3.5 -5.5 86 33 33 19.3 99.07   -11 Mostly Cloudy
02:00 Legend Double Dagger -4.7 -6.9 84 33 31 24.1 99.06   -13 LegendNANA
03:00 Legend Double Dagger -5.4 -7.1 88 34 18 24.1 99.09   -12 LegendNANA
04:00 Legend Double Dagger -4.6 -6.5 87 33 23 24.1 99.10   -12 Mainly Clear
05:00 Legend Double Dagger -4.3 -6.1 88 31 17 24.1 99.08   -10 LegendNANA
06:00 Legend Double Dagger -3.1 -5.0 87 31 14 24.1 99.11   -8 LegendNANA
07:00 Legend Double Dagger -3.5 -5.4 86 30 16 24.1 99.11   -9 Mostly Cloudy
08:00 Legend Double Dagger -3.1 -6.3 78 31 14 24.1 99.11   -8 LegendNANA
09:00 Legend Double Dagger -2.6 -5.7 80 28 24 24.1 99.10   -9 LegendNANA
10:00 Legend Double Dagger -2.6 -6.3 76 28 28 24.1 99.06   -10 Mainly Clear
11:00 Legend Double Dagger -2.2 -5.4 79 28 34 24.1 99.00   -10 LegendNANA
12:00 Legend Double Dagger -2.0 -5.4 78 28 33 24.1 98.98   -9 LegendNANA
13:00 Legend Double Dagger -1.8 -3.9 86 29 45 19.3 98.94   -10 Snow
14:00 Legend Double Dagger -1.9 -4.8 81 29 40 24.1 98.97   -10 LegendNANA
15:00 Legend Double Dagger -2.5 -5.2 82 29 23 19.3 98.99   -9 Snow,Blowing Snow
16:00 Legend Double Dagger -3.3 -4.7 91 28 36 1.6 99.00   -11 Snow,Blowing Snow
17:00 Legend Double Dagger -4.0 -5.4 90 29 37 1.6 99.03   -12 Snow,Blowing Snow
18:00 Legend Double Dagger -4.0 -5.2 91 28 36 3.2 99.04   -12 Snow,Blowing Snow
19:00 Legend Double Dagger -4.4 -6.9 83 29 30 19.3 99.08   -12 Snow,Blowing Snow
20:00 Legend Double Dagger -4.6 -6.0 90 28 32 19.3 99.11   -13 Snow,Blowing Snow
21:00 Legend Double Dagger -4.6 -6.3 88 28 39 19.3 99.10   -13 Snow,Blowing Snow
22:00 Legend Double Dagger -5.2 -7.8 82 28 35 24.1 99.08   -14 Snow,Blowing Snow
23:00 Legend Double Dagger -4.7 -7.8 79 28 32 24.1 99.09   -13 Snow,Blowing Snow

Notes on Data Quality.

Legend

  • E = Estimated
  • M = Missing
  • NA = Not Available
  • ‡ = Partner data that is not subject to review by the National Climate Archives
Date modified: